[[{"header":{"parameterUnit":"m.s-1","parameterCategory":1,"la1":30.2991,"la2":30.254,"lo1":-89.0895,"lo2":-89.0444,"dy":0.0017,"dx":0.0017,"nx":28,"ny":28,"refTime":"2025-05-26T21:00:00:Z","depth":0,"parameterNumber":2,"parameterNumberName":"U-component_of_WINDS"},"data":[0,0,0,0,0,0,0,0,0,0,0,0,0,0,0,0,0,0,0,0,0,0,0,0,0,0,0,0,0,0,0,0,0,0,0,0,0,0,0,0,0,0,0,0,0,0,0,0,0,0,0,0,0,0,0,0,0,0,1.2958,1.2958,0,1.2899,1.2898,1.2897,1.2848,1.2847,1.2847,1.2846,1.2785,1.2784,1.2783,0,0,0,0,0,0,0,0,0,0,0,0,0,1.3028,1.3027,1.2958,1.2958,1.2957,1.2899,1.2898,1.2897,1.2848,1.2847,1.2846,1.2846,1.2786,1.2784,1.2783,0,0,0,0,0,0,0,0,0,0,0,0,0,1.2986,1.3026,1.2959,1.2925,1.2922,1.2899,1.2898,1.2897,1.2848,1.2847,1.2846,1.2846,1.2786,1.2785,1.2783,1.2789,0,0,1.2778,1.2777,0,0,0,0,0,0,0,0,1.2988,1.2983,1.2931,1.2927,1.2923,1.288,1.29,1.2861,1.2848,1.2876,1.2846,1.2845,1.2817,1.2813,1.2804,1.2786,1.2783,1.2778,1.2777,1.2776,1.2775,0,0,0,0,0,0,0,1.2991,1.2986,1.2935,1.293,1.2926,1.2913,1.2906,1.2892,1.2852,1.2873,1.287,1.2863,1.2815,1.2805,1.2802,1.2782,1.2778,1.2776,1.2775,1.2774,1.2762,1.2763,0,0,0,0,0,0,1.2999,1.2988,1.2937,1.2933,1.2955,1.2912,1.2904,1.2895,1.2852,1.2845,1.2864,1.2861,1.2809,1.2804,1.28,1.2801,1.2776,1.2774,1.2773,1.2761,1.2762,1.2763,0,0,0,0,0,0,1.3001,1.2995,1.2939,1.296,1.2951,1.2912,1.2901,1.2894,1.2884,1.2845,1.2837,1.2862,1.2808,1.2802,1.2791,1.2798,1.2774,1.2772,1.2761,1.2762,1.2763,1.2805,0,0,0,0,0,0,1.3003,1.2996,1.2999,1.296,1.2951,1.2932,1.2902,1.2893,1.2881,1.2877,1.284,1.2834,1.2807,1.2794,1.2789,1.2795,1.2771,1.276,1.2761,1.2762,1.2803,1.2808,1.2812,0,0,0,0,0,1.3006,1.3014,1.2999,1.2993,1.2953,1.2933,1.2927,1.2896,1.2882,1.2883,1.2858,1.2835,1.2798,1.2793,1.2787,1.2793,1.2759,1.2761,1.2762,1.2801,1.2807,1.2811,0,0,0,0,0,0,1.3055,1.3008,1.2991,1.2987,1.2964,1.2924,1.2925,1.2903,1.2884,1.2881,1.2843,1.2835,1.2828,1.281,1.2804,1.2795,1.2776,1.2776,1.2807,1.2812,1.2816,1.282,1.2769,0,0,0,0,0,1.3065,1.3053,1.3013,1.3012,1.3002,1.2966,1.2956,1.2933,1.2908,1.2898,1.2872,1.2848,1.2831,1.2821,1.2803,1.28,1.279,1.2801,1.2806,1.2809,1.281,1.2804,1.2808,1.2768,1.2768,1.2768,0,0,1.3086,1.3059,1.3054,1.3021,1.3001,1.2988,1.2958,1.2946,1.2936,1.2897,1.2884,1.2864,1.2834,1.2827,1.2822,1.2811,1.2819,1.2811,1.2815,1.2813,1.2806,1.281,1.2813,1.2769,1.2769,1.2769,0,0,1.3117,1.3096,1.3092,1.3072,1.3041,1.3017,1.3016,1.2979,1.2964,1.295,1.292,1.2907,1.2879,1.2858,1.2844,1.2865,1.2842,1.2861,1.2883,1.2877,1.2881,1.2883,1.2888,1.2891,1.2862,1.2862,1.2862,0,1.3147,1.3127,1.3093,1.3083,1.3069,1.3032,1.3027,1.3009,1.2974,1.2965,1.2953,1.2915,1.2893,1.2879,1.2883,1.2874,1.287,1.2864,1.2883,1.2885,1.2887,1.2891,1.2894,1.2864,1.2864,1.2863,1.2863,0,1.3163,1.315,1.3151,1.3117,1.3103,1.3095,1.306,1.305,1.3028,1.3004,1.299,1.2962,1.2936,1.2932,1.2911,1.2913,1.2907,1.289,1.287,1.2894,1.2897,1.2899,1.2867,1.2866,1.2866,1.2865,0,0,1.3224,1.3171,1.3171,1.3154,1.3117,1.3105,1.3095,1.307,1.3061,1.3038,1.3027,1.3003,1.2985,1.297,1.2946,1.2942,1.2957,1.2925,1.2923,1.293,1.2955,1.2967,1.297,1.2942,1.2942,1.2943,1.2957,0,1.3247,1.3227,1.3196,1.3186,1.3171,1.3135,1.3126,1.3102,1.3079,1.3063,1.3038,1.302,1.3,1.299,1.2984,1.2957,1.2961,1.2956,1.293,1.293,1.2937,1.2972,1.2985,1.3,1.2958,1.2958,1.2959,0,1.3272,1.325,1.3238,1.3199,1.3192,1.3185,1.3157,1.3143,1.3114,1.3097,1.3079,1.3053,1.3039,1.3021,1.3,1.2996,1.2984,1.2969,1.2969,1.2964,1.2945,1.2967,1.3004,1.3006,1.2961,1.2961,1.296,0,1.3315,1.3282,1.327,1.3257,1.3212,1.3207,1.3188,1.3158,1.3144,1.312,1.311,1.3086,1.3072,1.3052,1.302,1.301,1.3001,1.2981,1.2986,1.2986,1.2985,1.2985,1.3019,1.298,1.298,1.298,1.298,0,1.3343,1.3337,1.3288,1.3281,1.3271,1.3235,1.3227,1.3205,1.3178,1.3164,1.3132,1.312,1.3078,1.3061,1.3036,1.302,1.3015,1.3,1.2993,1.3002,1.3004,1.2993,1.299,1.298,1.298,1.298,1.298,0,1.3389,1.3356,1.334,1.3298,1.3288,1.3283,1.3247,1.3237,1.3212,1.3195,1.3189,1.3149,1.3127,1.3093,1.3061,1.3043,1.3032,1.3021,1.3041,1.3037,1.3042,1.3042,1.307,1.307,1.3032,1.3033,1.3033,0,1.3408,1.3402,1.336,1.3348,1.333,1.3312,1.3297,1.3261,1.3247,1.3211,1.3206,1.3181,1.3159,1.3124,1.3092,1.3066,1.3054,1.3065,1.305,1.3058,1.3051,1.3052,1.305,1.3069,1.3069,1.307,1.307,0,1.3445,1.3429,1.3409,1.3383,1.3366,1.3343,1.3319,1.3312,1.327,1.3255,1.3231,1.3214,1.318,1.3155,1.3124,1.3104,1.3079,1.3075,1.3074,1.3083,1.3094,1.3086,1.305,1.3075,1.3074,1.3074,1.3074,1.3074,1.3477,1.3469,1.3437,1.3415,1.3393,1.3371,1.3359,1.3332,1.3312,1.3282,1.3261,1.3238,1.3206,1.3163,1.3143,1.3124,1.3114,1.3113,1.3113,1.3113,1.3115,1.3098,1.3118,1.3118,1.3118,1.3118,1.3118,0,1.3511,1.3488,1.3469,1.3435,1.3418,1.3397,1.3368,1.3354,1.3335,1.3308,1.3286,1.3258,1.3232,1.3198,1.3169,1.316,1.3148,1.3154,1.3154,1.3149,1.3127,1.3129,1.3164,1.3164,1.3164,1.3164,1.3164,1.3164,1.3526,1.3511,1.3491,1.3463,1.344,1.3418,1.3403,1.3382,1.3359,1.3329,1.3308,1.3286,1.3255,1.3224,1.3199,1.3189,1.3179,1.3188,1.3175,1.3155,1.3151,1.3147,1.3149,1.3187,1.3187,1.3198,1.3198,1.3198]},{"header":{"parameterUnit":"m.s-1","parameterCategory":1,"la1":30.2991,"la2":30.254,"lo1":-89.0895,"lo2":-89.0444,"dy":0.0017,"dx":0.0017,"nx":28,"ny":28,"refTime":"2025-05-26T21:00:00:Z","depth":0,"parameterNumber":3,"parameterNumberName":"V-component_of_WINDS"},"data":[0,0,0,0,0,0,0,0,0,0,0,0,0,0,0,0,0,0,0,0,0,0,0,0,0,0,0,0,0,0,0,0,0,0,0,0,0,0,0,0,0,0,0,0,0,0,0,0,0,0,0,0,0,0,0,0,0,0,6.5236,6.5236,0,6.5272,6.5272,6.5272,6.5187,6.5184,6.5181,6.5179,6.5212,6.5215,6.5219,0,0,0,0,0,0,0,0,0,0,0,0,0,6.5087,6.509,6.5235,6.5236,6.5236,6.5272,6.5272,6.5273,6.5187,6.5184,6.5181,6.5178,6.5211,6.5215,6.5219,0,0,0,0,0,0,0,0,0,0,0,0,0,6.514,6.5091,6.5235,6.5198,6.5195,6.5272,6.5272,6.5273,6.5188,6.5184,6.518,6.5176,6.521,6.5215,6.522,6.5333,0,0,6.5235,6.5237,0,0,0,0,0,0,0,0,6.5137,6.5146,6.5203,6.5201,6.5198,6.5221,6.5232,6.5293,6.5189,6.5191,6.5179,6.5174,6.5218,6.5222,6.5238,6.5334,6.5336,6.5236,6.5239,6.5241,6.5242,0,0,0,0,0,0,0,6.5134,6.5144,6.525,6.5204,6.5201,6.5178,6.5181,6.5243,6.5227,6.519,6.5184,6.519,6.5216,6.5233,6.5238,6.5336,6.5236,6.524,6.5243,6.5245,6.5524,6.5528,0,0,0,0,0,0,6.5135,6.5141,6.5248,6.5251,6.5157,6.5184,6.5187,6.5217,6.5226,6.5223,6.5193,6.5186,6.5226,6.5232,6.5239,6.5369,6.5241,6.5246,6.5249,6.5519,6.5524,6.5529,0,0,0,0,0,0,6.5133,6.5146,6.5247,6.5194,6.5205,6.5191,6.5225,6.522,6.5237,6.5228,6.5224,6.5214,6.5223,6.5232,6.5309,6.5369,6.5248,6.5253,6.5514,6.5521,6.5527,6.5633,0,0,0,0,0,0,6.5129,6.5145,6.519,6.5196,6.5209,6.5319,6.5229,6.5224,6.5247,6.5237,6.5247,6.5244,6.5221,6.5302,6.5315,6.5374,6.5257,6.5509,6.5517,6.5525,6.5624,6.5642,6.5658,0,0,0,0,0,6.5124,6.5218,6.5192,6.5206,6.5264,6.5323,6.533,6.5302,6.5252,6.5295,6.5289,6.5244,6.5361,6.5311,6.5324,6.5386,6.5505,6.5515,6.5524,6.5616,6.5638,6.5657,0,0,0,0,0,0,6.5218,6.5218,6.519,6.5289,6.5307,6.5308,6.5362,6.5327,6.5358,6.5347,6.531,6.5313,6.5397,6.5399,6.5344,6.5494,6.5424,6.5437,6.549,6.5511,6.5527,6.5524,6.5261,0,0,0,0,0,6.525,6.53,6.5297,6.5384,6.5395,6.5377,6.5402,6.5379,6.5395,6.5402,6.5401,6.5417,6.5457,6.5484,6.5521,6.5624,6.5623,6.5673,6.569,6.5704,6.5715,6.5767,6.5788,6.5561,6.5561,6.5561,0,0,6.5318,6.5324,6.5357,6.5403,6.5414,6.5464,6.5384,6.5441,6.5477,6.541,6.5483,6.5483,6.5498,6.5589,6.5629,6.5593,6.5778,6.5716,6.5727,6.5731,6.5779,6.5801,6.582,6.5568,6.5567,6.5565,0,0,6.5465,6.5476,6.5549,6.5562,6.5579,6.5567,6.5585,6.5591,6.5589,6.5662,6.5612,6.5654,6.5724,6.5737,6.5752,6.5903,6.5862,6.5916,6.6004,6.6055,6.6073,6.6088,6.614,6.6159,6.5927,6.5927,6.5927,0,6.5546,6.5621,6.5591,6.5651,6.5671,6.5614,6.5686,6.5699,6.5728,6.5742,6.5703,6.5789,6.5795,6.5887,6.5923,6.5939,6.5955,6.5914,6.6073,6.6088,6.6102,6.6151,6.6171,6.5934,6.5933,6.5932,6.5932,0,6.5718,6.5771,6.5828,6.5857,6.5884,6.595,6.5928,6.5958,6.5933,6.5924,6.5997,6.6003,6.6039,6.6059,6.6035,6.6146,6.6124,6.608,6.6008,6.6131,6.6176,6.6194,6.5943,6.594,6.5938,6.5937,0,0,6.5927,6.5938,6.5959,6.597,6.5985,6.6024,6.6086,6.6122,6.6148,6.6169,6.6218,6.6279,6.6237,6.6255,6.6231,6.6277,6.6393,6.6226,6.6226,6.6255,6.6513,6.6546,6.6568,6.6366,6.637,6.6372,6.6511,0,6.6071,6.6179,6.6153,6.6259,6.6305,6.625,6.6304,6.6317,6.6311,6.6347,6.6339,6.6382,6.6325,6.6335,6.6377,6.637,6.6444,6.6359,6.641,6.6412,6.6406,6.6592,6.6626,6.6757,6.6529,6.6532,6.6534,0,6.6254,6.6282,6.6393,6.6398,6.6416,6.6465,6.6494,6.6532,6.6545,6.6536,6.6556,6.6522,6.6581,6.6511,6.659,6.6533,6.6552,6.6552,6.6556,6.6558,6.6479,6.6597,6.6799,6.6818,6.6562,6.656,6.6558,0,6.6392,6.6458,6.6532,6.6544,6.6552,6.6587,6.6592,6.6601,6.6624,6.6649,6.6663,6.6695,6.6712,6.6736,6.6711,6.6663,6.6794,6.6722,6.6787,6.6787,6.6815,6.6814,6.7021,6.6831,6.6831,6.6831,6.683,0,6.6554,6.6624,6.6593,6.6639,6.6714,6.6682,6.6757,6.6755,6.6764,6.6807,6.6762,6.6802,6.6768,6.6805,6.6786,6.6854,6.6862,6.6855,6.6849,6.6859,6.6859,6.6869,6.6859,6.6836,6.6835,6.6834,6.6833,0,6.6721,6.6704,6.678,6.6782,6.6783,6.6839,6.6839,6.688,6.6869,6.6923,6.6934,6.6917,6.6958,6.6937,6.6979,6.6966,6.7053,6.7035,6.7049,6.7043,6.7109,6.7102,6.7328,6.7356,6.715,6.7152,6.7154,0,6.6825,6.6877,6.6884,6.6909,6.6917,6.6959,6.6982,6.6952,6.6977,6.6995,6.7034,6.7071,6.7099,6.7167,6.7158,6.719,6.7171,6.7248,6.7175,6.7183,6.717,6.7166,6.717,6.7262,6.7265,6.7267,6.7268,0,6.7011,6.6999,6.7034,6.7066,6.7094,6.7117,6.7136,6.7159,6.713,6.716,6.7201,6.7224,6.7267,6.7304,6.7331,6.7334,6.7296,6.7292,6.7308,6.7317,6.7322,6.7318,6.7087,6.7286,6.7284,6.7283,6.7282,6.7281,6.7148,6.719,6.7201,6.7241,6.7252,6.7271,6.7309,6.7303,6.7337,6.737,6.735,6.7399,6.7409,6.7441,6.7449,6.7486,6.7455,6.7479,6.7485,6.7491,6.7499,6.7318,6.7491,6.749,6.749,6.7489,6.7489,0,6.7329,6.7333,6.737,6.7398,6.7429,6.7391,6.741,6.7438,6.7481,6.7494,6.7523,6.757,6.7605,6.7598,6.763,6.766,6.7643,6.7669,6.7666,6.7667,6.7526,6.7507,6.7682,6.7682,6.7682,6.7682,6.7682,6.7682,6.7427,6.7497,6.7486,6.756,6.7563,6.7611,6.7624,6.764,6.765,6.7705,6.7734,6.773,6.7734,6.7766,6.7796,6.7793,6.7805,6.7837,6.7828,6.7696,6.7677,6.7658,6.7641,6.7841,6.7841,6.7965,6.7967,6.7967]}]]